Location: Cabri�res
(43.7840°N, 5.4986°E)
Time: 01:31:56
(UTC+00:00)

Cosmos 468 Rocket - Pass Details

Date: 09 April 2020
Orbit: 745 x 779 km, 74.0° (Epoch: 05 June)

Event Time Altitude Azimuth Distance (km) Brightness Sun altitude
Rises 20:34:30 0° 339° (NNW) 3,213 8.2 -23.5°
Reaches altitude 10° 20:36:53 10° 339° (NNW) 2,280 7.3 -23.8°
Maximum altitude 20:42:03 88° 252° (WSW) 754 3.8 -24.5°
Enters shadow 20:42:38 71° 166° (SSE) 792 3.8 -24.6°
